[ hide orbit diagram ]
For accurate long-term ephemerides, please instead use our Horizons system.This orbit viewer was implemented using two-body methods, and hence should not be used for determining accurate long-term trajectories (over several years or decades) or planetary encounter circumstances.
Orbital Elements at Epoch 2459000.5 (2020-May-31.0) TDB
Reference: JPL 13 (heliocentric ecliptic J2000)
Element | Value | Uncertainty (1-sigma) | Units |
e | .166051579014069 | 6.1883e-08 | |
a | 2.209333376188026 | 1.6868e-08 | au |
q | 1.84247008050352 | 1.4418e-07 | au |
i | 4.835991330133266 | 4.7331e-06 | deg |
node | 282.4662187929365 | 6.6297e-05 | deg |
peri | 45.27085726904134 | 6.7589e-05 | deg |
M | 275.8121926874225 | 1.6869e-05 | deg |
tp | 2459281.002673336676 (2021-Mar-07.50267334) | 5.8267e-05 | TDB |
period | 1199.472532005438 3.28 | 1.3737e-05 3.761e-08 | d yr |
n | .3001319249871474 | 3.4373e-09 | deg/d |
Q | 2.576196671872532 | 1.9669e-08 | au |
|
| | Orbit Determination Parameters
Additional Information
|
[ show covariance matrix ]
Physical Parameter Table
Parameter |
Symbol |
Value |
Units |
Sigma |
Reference |
Notes |
absolute magnitude |
H |
17.5 |
|
n/a |
MPO471703 |
|
|
359768 (2011 UH126) Discovered 2004-Jul-09 by LINEAR at Socorro |
Reference: 20130327/Numbers.arc | Last Updated: 2013-03-29 |
|
[ show close-approach data ]
|